Powrót do katalogu

STARLINK-30952

AktywnyŁącznośćVLEO
NORAD 58405·PAYLOAD·🇺🇸 United States

Wystrzelony Nov 22, 2023 z Cape Canaveral Space Force Station

Loading…

Następne Przeloty (najbliższe 24 godziny)

TLE

ŚwieżeSource: CelesTrak SupGP

Epoka: Sep 14, 2026, 13:53 UTC

1 58405C 23180D   26257.57895833  .00004387  00000+0  15909-3 0  2571
2 58405  43.0034  65.9180 0001411 266.3995  65.9275 15.27535297    15

Śledź STARLINK-30952 w czasie rzeczywistym z AllMySat

Download on the App Store